[[{"header":{"parameterUnit":"m.s-1","parameterCategory":1,"la1":30.2991,"la2":30.254,"lo1":-89.0895,"lo2":-89.0444,"dy":0.0017,"dx":0.0017,"nx":28,"ny":28,"refTime":"2025-04-27T21:00:00:Z","depth":0,"parameterNumber":2,"parameterNumberName":"U-component_of_WINDS"},"data":[0,0,0,0,0,0,0,0,0,0,0,0,0,0,0,0,0,0,0,0,0,0,0,0,0,0,0,0,0,0,0,0,0,0,0,0,0,0,0,0,0,0,0,0,0,0,0,0,0,0,0,0,0,0,0,0,0,0,1.8718,1.8718,0,1.8723,1.8723,1.8723,1.8672,1.867,1.8669,1.8668,1.8673,1.8674,1.8675,0,0,0,0,0,0,0,0,0,0,0,0,0,1.8664,1.8665,1.8718,1.8718,1.8718,1.8723,1.8723,1.8723,1.8672,1.867,1.8669,1.8667,1.8672,1.8674,1.8675,0,0,0,0,0,0,0,0,0,0,0,0,0,1.868,1.8666,1.8718,1.8693,1.8691,1.8723,1.8723,1.8723,1.8672,1.867,1.8668,1.8666,1.8671,1.8674,1.8676,1.8731,0,0,1.8682,1.8683,0,0,0,0,0,0,0,0,1.8679,1.8682,1.8697,1.8695,1.8693,1.8695,1.8706,1.8726,1.8673,1.868,1.8668,1.8665,1.8682,1.8683,1.8688,1.8732,1.8732,1.8683,1.8684,1.8685,1.8685,0,0,0,0,0,0,0,1.8678,1.8682,1.872,1.8697,1.8695,1.8682,1.8682,1.8709,1.8692,1.8679,1.8675,1.8676,1.868,1.8686,1.8688,1.8732,1.8682,1.8684,1.8686,1.8687,1.8819,1.8821,0,0,0,0,0,0,1.8681,1.8681,1.872,1.872,1.8681,1.8684,1.8684,1.8696,1.8692,1.8689,1.8678,1.8674,1.8684,1.8686,1.8688,1.875,1.8685,1.8687,1.8688,1.8817,1.8819,1.8822,0,0,0,0,0,0,1.868,1.8684,1.872,1.87,1.8703,1.8688,1.8701,1.8697,1.8704,1.8691,1.8688,1.8688,1.8682,1.8685,1.872,1.875,1.8688,1.869,1.8814,1.8817,1.882,1.8878,0,0,0,0,0,0,1.8678,1.8684,1.8706,1.8701,1.8704,1.8752,1.8703,1.8699,1.8707,1.8702,1.87,1.8697,1.8681,1.8717,1.8723,1.8752,1.8691,1.8811,1.8815,1.8819,1.8873,1.8883,1.8891,0,0,0,0,0,1.8676,1.8722,1.8707,1.8712,1.8731,1.8754,1.8756,1.8737,1.871,1.8731,1.8723,1.8697,1.8747,1.8722,1.8727,1.8757,1.8809,1.8814,1.8819,1.8869,1.8881,1.8891,0,0,0,0,0,0,1.8731,1.8721,1.8704,1.875,1.8753,1.8746,1.8771,1.875,1.8761,1.8755,1.8731,1.873,1.8769,1.8767,1.874,1.881,1.8773,1.8779,1.8809,1.882,1.8829,1.8827,1.8693,0,0,0,0,0,1.8749,1.8769,1.8759,1.88,1.8803,1.8787,1.8797,1.8781,1.8784,1.8785,1.8779,1.8783,1.8799,1.881,1.8824,1.8873,1.8871,1.8897,1.8906,1.8913,1.8918,1.8941,1.8952,1.8838,1.8838,1.8838,0,0,1.8785,1.8782,1.8796,1.8811,1.8812,1.8832,1.8788,1.8813,1.8827,1.8788,1.882,1.8817,1.8819,1.8861,1.8879,1.8861,1.8949,1.892,1.8925,1.8926,1.8948,1.8958,1.8968,1.8841,1.8841,1.884,0,0,1.886,1.8861,1.8894,1.8896,1.8898,1.8887,1.8895,1.889,1.8886,1.8919,1.8889,1.8907,1.8936,1.8937,1.8942,1.9018,1.8994,1.9024,1.9069,1.9092,1.9101,1.9109,1.9133,1.9143,1.9029,1.903,1.903,0,1.8905,1.8935,1.8914,1.8939,1.8946,1.8912,1.8944,1.8947,1.8954,1.8959,1.8938,1.8972,1.8972,1.9012,1.903,1.9037,1.9044,1.9023,1.9102,1.9109,1.9116,1.9139,1.9149,1.9033,1.9033,1.9032,1.9032,0,1.8988,1.9009,1.9036,1.9042,1.9052,1.9081,1.9064,1.9076,1.906,1.9051,1.9084,1.9082,1.9094,1.9103,1.9088,1.9142,1.9129,1.9106,1.9068,1.9131,1.9152,1.9161,1.9038,1.9036,1.9035,1.9035,0,0,1.9097,1.9091,1.91,1.9102,1.9101,1.9117,1.9145,1.9156,1.9166,1.9173,1.9193,1.9219,1.9196,1.9202,1.9187,1.9207,1.9264,1.9181,1.918,1.9194,1.932,1.9336,1.9346,1.925,1.9251,1.9253,1.9319,0,1.9168,1.9213,1.9195,1.9241,1.9259,1.9228,1.9251,1.9253,1.9246,1.926,1.9252,1.9269,1.924,1.9242,1.9262,1.9253,1.9289,1.9249,1.9267,1.9268,1.9264,1.9358,1.9375,1.9437,1.9327,1.9329,1.933,0,1.9256,1.9265,1.9313,1.9307,1.9314,1.9336,1.9344,1.9359,1.936,1.9353,1.9359,1.9339,1.9365,1.9329,1.9363,1.9336,1.9343,1.934,1.9342,1.9341,1.9301,1.9356,1.9457,1.9465,1.9343,1.9342,1.9341,0,1.9327,1.9351,1.9382,1.9385,1.938,1.9395,1.9394,1.9393,1.9401,1.9409,1.9413,1.9425,1.943,1.9439,1.9422,1.9398,1.9458,1.9421,1.9451,1.9451,1.9463,1.9462,1.9563,1.9472,1.9472,1.9472,1.9472,0,1.9406,1.9436,1.9413,1.9432,1.9464,1.9444,1.9476,1.9472,1.9471,1.9488,1.9463,1.9479,1.9457,1.9472,1.9459,1.9488,1.9491,1.9485,1.9481,1.9486,1.9486,1.9488,1.9482,1.9474,1.9474,1.9473,1.9473,0,1.9489,1.9475,1.9506,1.9499,1.9498,1.9522,1.9516,1.9533,1.9524,1.9546,1.955,1.9536,1.9551,1.9536,1.9551,1.9543,1.958,1.9571,1.9579,1.9575,1.9605,1.9601,1.9709,1.9721,1.9625,1.9626,1.9627,0,1.9539,1.9561,1.9556,1.9565,1.9565,1.9581,1.9588,1.9569,1.9578,1.9581,1.9597,1.961,1.9619,1.9646,1.9636,1.9647,1.9637,1.9674,1.9638,1.9641,1.9634,1.9631,1.9632,1.968,1.9681,1.9682,1.9683,0,1.9628,1.962,1.9631,1.964,1.965,1.9656,1.9661,1.967,1.965,1.9661,1.9676,1.9683,1.9698,1.9711,1.9719,1.9717,1.9696,1.9695,1.9701,1.9705,1.9707,1.9703,1.9596,1.9691,1.969,1.969,1.9689,1.9689,1.9694,1.9711,1.9709,1.9723,1.9724,1.9729,1.9743,1.9736,1.9749,1.9758,1.9747,1.9765,1.9765,1.9773,1.9774,1.9788,1.9772,1.9783,1.9785,1.9787,1.979,1.9708,1.979,1.979,1.9789,1.9789,1.9789,0,1.9779,1.9776,1.9789,1.9795,1.9805,1.9786,1.9789,1.9799,1.9815,1.9817,1.9826,1.9843,1.9855,1.9848,1.9858,1.987,1.986,1.9873,1.987,1.987,1.9805,1.9797,1.988,1.988,1.988,1.988,1.988,1.988,1.9824,1.9851,1.9843,1.987,1.9868,1.9884,1.9888,1.9892,1.9893,1.9912,1.9922,1.9917,1.9915,1.9924,1.9934,1.9932,1.9936,1.9951,1.9945,1.9884,1.9875,1.9866,1.9858,1.9953,1.9953,2.0008,2.0008,2.0009]},{"header":{"parameterUnit":"m.s-1","parameterCategory":1,"la1":30.2991,"la2":30.254,"lo1":-89.0895,"lo2":-89.0444,"dy":0.0017,"dx":0.0017,"nx":28,"ny":28,"refTime":"2025-04-27T21:00:00:Z","depth":0,"parameterNumber":3,"parameterNumberName":"V-component_of_WINDS"},"data":[0,0,0,0,0,0,0,0,0,0,0,0,0,0,0,0,0,0,0,0,0,0,0,0,0,0,0,0,0,0,0,0,0,0,0,0,0,0,0,0,0,0,0,0,0,0,0,0,0,0,0,0,0,0,0,0,0,0,2.1403,2.1404,0,2.1483,2.1483,2.1484,2.1478,2.1477,2.1476,2.1475,2.1555,2.1558,2.1561,0,0,0,0,0,0,0,0,0,0,0,0,0,2.1244,2.1247,2.1403,2.1404,2.1405,2.1482,2.1484,2.1485,2.1478,2.1477,2.1476,2.1474,2.1554,2.1557,2.1561,0,0,0,0,0,0,0,0,0,0,0,0,0,2.1317,2.1248,2.1403,2.1411,2.1413,2.1482,2.1484,2.1485,2.1479,2.1477,2.1475,2.1474,2.1552,2.1557,2.1562,2.1627,0,0,2.1577,2.1579,0,0,0,0,0,0,0,0,2.1313,2.1323,2.1409,2.1411,2.1413,2.1469,2.1457,2.1533,2.1479,2.1454,2.1475,2.1473,2.1527,2.1534,2.1553,2.1631,2.1635,2.1577,2.158,2.1582,2.1583,0,0,0,0,0,0,0,2.1308,2.1319,2.1434,2.141,2.1413,2.141,2.1419,2.1471,2.1499,2.1456,2.1456,2.1465,2.1528,2.1548,2.1555,2.1636,2.1577,2.1581,2.1584,2.1586,2.177,2.1772,0,0,0,0,0,0,2.1301,2.1315,2.1432,2.1437,2.1357,2.1415,2.1424,2.1453,2.1499,2.1504,2.1467,2.1465,2.1541,2.1549,2.1558,2.1636,2.1582,2.1587,2.1589,2.1768,2.177,2.1773,0,0,0,0,0,0,2.1298,2.1311,2.1429,2.1376,2.1391,2.1419,2.1451,2.1455,2.1475,2.1507,2.1512,2.1482,2.154,2.1551,2.161,2.1639,2.1589,2.1593,2.1766,2.1769,2.1772,2.1795,0,0,0,0,0,0,2.1293,2.131,2.1336,2.1377,2.1394,2.1481,2.1453,2.1458,2.1484,2.1482,2.1523,2.1528,2.1539,2.1603,2.1615,2.1645,2.1597,2.1763,2.1767,2.1771,2.1792,2.1799,2.1804,0,0,0,0,0,2.1287,2.134,2.1337,2.1352,2.1427,2.1482,2.1492,2.1504,2.1486,2.1512,2.1532,2.1527,2.1634,2.1609,2.1622,2.1654,2.1761,2.1766,2.177,2.1789,2.1797,2.1804,0,0,0,0,0,0,2.1302,2.1345,2.1343,2.141,2.1443,2.1481,2.1514,2.1512,2.155,2.1547,2.156,2.1569,2.1628,2.1647,2.1618,2.1719,2.1695,2.1703,2.1705,2.1713,2.1719,2.1713,2.1601,0,0,0,0,0,2.1313,2.1355,2.139,2.1446,2.1462,2.1485,2.151,2.1517,2.155,2.1564,2.1588,2.1621,2.1662,2.1688,2.1728,2.1795,2.1803,2.1823,2.1829,2.1834,2.184,2.1876,2.1885,2.1787,2.1787,2.1787,0,0,2.1336,2.1365,2.139,2.1449,2.1475,2.1518,2.1497,2.1543,2.1574,2.1571,2.1628,2.1647,2.1684,2.1747,2.1776,2.1765,2.1869,2.184,2.1844,2.1847,2.1881,2.189,2.1899,2.179,2.179,2.1789,0,0,2.1399,2.1426,2.1475,2.1501,2.154,2.1555,2.1567,2.1605,2.1618,2.1676,2.1673,2.171,2.1781,2.1807,2.183,2.1902,2.1898,2.1914,2.1946,2.1981,2.1988,2.1995,2.202,2.2029,2.192,2.192,2.192,0,2.1423,2.1487,2.15,2.1546,2.1571,2.157,2.1619,2.1644,2.1694,2.1711,2.1698,2.1786,2.181,2.1879,2.1896,2.1915,2.1928,2.1909,2.1986,2.1993,2.2,2.2024,2.2033,2.1922,2.1922,2.1922,2.1921,0,2.1514,2.1558,2.1593,2.1641,2.1671,2.1718,2.1737,2.1765,2.1769,2.1784,2.1842,2.1872,2.1917,2.1934,2.1938,2.2003,2.1994,2.1984,2.1959,2.2011,2.2033,2.2043,2.1924,2.1924,2.1923,2.1923,0,0,2.1589,2.1643,2.1655,2.1677,2.172,2.1754,2.1801,2.1845,2.1868,2.1903,2.1941,2.2001,2.1991,2.2016,2.2023,2.2053,2.2107,2.2039,2.204,2.205,2.2179,2.2186,2.2196,2.2105,2.2107,2.2108,2.2175,0,2.1656,2.1739,2.1751,2.1824,2.1865,2.1864,2.1905,2.1935,2.1951,2.1987,2.2004,2.2046,2.203,2.2045,2.2075,2.2094,2.2133,2.209,2.214,2.2142,2.213,2.2208,2.2216,2.2278,2.2184,2.2186,2.2187,0,2.1746,2.1782,2.186,2.1896,2.1913,2.195,2.199,2.2026,2.2059,2.2068,2.2096,2.2099,2.2147,2.2121,2.2185,2.2156,2.2177,2.2189,2.2192,2.2197,2.2167,2.2214,2.2299,2.2307,2.2201,2.22,2.2199,0,2.1791,2.186,2.1915,2.1933,2.1977,2.2003,2.2022,2.2054,2.2079,2.2115,2.2131,2.2172,2.2194,2.2224,2.2238,2.2218,2.2301,2.2277,2.2309,2.2309,2.2327,2.2325,2.2415,2.2341,2.2341,2.2341,2.2341,0,2.1865,2.1912,2.1936,2.197,2.2022,2.2035,2.2086,2.2104,2.2133,2.2169,2.2171,2.2205,2.222,2.2257,2.2267,2.2318,2.2329,2.2337,2.2339,2.2336,2.2335,2.235,2.2346,2.2344,2.2343,2.2343,2.2342,0,2.1925,2.1943,2.2003,2.2039,2.2049,2.2086,2.2117,2.2149,2.2164,2.221,2.2222,2.2246,2.2288,2.2305,2.2357,2.2364,2.2422,2.2422,2.2411,2.2412,2.2443,2.244,2.2545,2.2559,2.2477,2.2478,2.2478,0,2.197,2.2006,2.2047,2.2071,2.2091,2.2131,2.2157,2.2171,2.2197,2.2238,2.2265,2.2307,2.2342,2.241,2.2431,2.2471,2.247,2.2504,2.2476,2.2472,2.247,2.2467,2.247,2.2509,2.251,2.2511,2.2511,0,2.2049,2.2056,2.2093,2.2133,2.2164,2.2197,2.2228,2.2248,2.2266,2.2296,2.234,2.2366,2.2419,2.2461,2.2501,2.252,2.2519,2.252,2.253,2.2527,2.2519,2.2523,2.2425,2.2518,2.2517,2.2517,2.2516,2.2516,2.2102,2.2134,2.2167,2.2208,2.2233,2.2262,2.2294,2.2313,2.235,2.2394,2.24,2.2446,2.2477,2.2532,2.2552,2.2588,2.2579,2.2593,2.2596,2.26,2.2601,2.2514,2.2596,2.2595,2.2595,2.2595,2.2595,0,2.218,2.2201,2.2239,2.2282,2.2315,2.2311,2.2345,2.2372,2.2413,2.2443,2.2477,2.2526,2.2566,2.2591,2.2631,2.2655,2.2655,2.2665,2.2663,2.2667,2.2608,2.2595,2.2664,2.2664,2.2664,2.2664,2.2664,2.2664,2.2224,2.2277,2.2288,2.2352,2.2373,2.2419,2.2438,2.2465,2.2489,2.2544,2.2577,2.2593,2.262,2.2662,2.2699,2.2705,2.2719,2.273,2.2735,2.2679,2.2671,2.2665,2.2653,2.2733,2.2733,2.2791,2.2792,2.2792]}]]